POE595 CYTZ-KCLE

Flight info

Callsign POE595
Flight time N/A
Altitude 22000
Route OAKVL3 ERI DCT TRYBE TRYBE4
Aircraft DH8D/M-SDE2E3FGRY/H

Departure

Time 2026-05-09 00:27
Airport Billy Bishop Toronto City Airport (CYTZ)

Arrival

Time N/A
Airport Cleveland Hopkins International Airport (KCLE)
Time Latitude Longitude Altitude Speed Heading
2026-05-09 00:01 43.63099 -79.39542 240 ft 0 kts 344°
2026-05-09 00:19 43.63093 -79.39539 240 ft 2 kts 344°
2026-05-09 00:20 43.63080 -79.39534 240 ft 2 kts 344°
2026-05-09 00:20 43.63072 -79.39531 240 ft 0 kts 344°
2026-05-09 00:20 43.63065 -79.39528 239 ft 2 kts 335°
2026-05-09 00:20 43.63053 -79.39518 239 ft 2 kts 318°
2026-05-09 00:21 43.63045 -79.39504 239 ft 0 kts 304°
2026-05-09 00:23 43.63049 -79.39521 239 ft 5 kts 272°
2026-05-09 00:23 43.63035 -79.39587 239 ft 9 kts 253°
2026-05-09 00:23 43.63003 -79.39688 239 ft 13 kts 246°
2026-05-09 00:23 43.62971 -79.39813 239 ft 13 kts 261°
2026-05-09 00:24 43.62996 -79.39932 239 ft 13 kts 295°
2026-05-09 00:24 43.63021 -79.40048 239 ft 12 kts 261°
2026-05-09 00:24 43.62977 -79.40144 239 ft 13 kts 225°
2026-05-09 00:24 43.62891 -79.40249 239 ft 17 kts 221°
2026-05-09 00:25 43.62847 -79.40302 239 ft 2 kts 221°
2026-05-09 00:25 43.62846 -79.40304 239 ft 0 kts 221°
2026-05-09 00:25 43.62816 -79.40329 239 ft 8 kts 190°
2026-05-09 00:25 43.62765 -79.40286 239 ft 10 kts 107°
2026-05-09 00:26 43.62770 -79.40243 239 ft 16 kts 71°
2026-05-09 00:26 43.62914 -79.39661 239 ft 106 kts 72°
2026-05-09 00:26 43.63216 -79.38471 372 ft 143 kts 73°
2026-05-09 00:26 43.63605 -79.37143 640 ft 160 kts 65°
2026-05-09 00:27 43.64144 -79.35816 1180 ft 154 kts 73°
2026-05-09 00:27 43.64436 -79.34415 1643 ft 155 kts 81°
2026-05-09 00:27 43.64702 -79.32978 2107 ft 157 kts 80°
2026-05-09 00:27 43.64970 -79.31499 2573 ft 159 kts 80°
2026-05-09 00:28 43.65218 -79.30018 3038 ft 161 kts 80°
2026-05-09 00:28 43.65450 -79.28504 3509 ft 162 kts 82°
2026-05-09 00:28 43.65306 -79.26978 3763 ft 171 kts 129°
2026-05-09 00:28 43.64271 -79.26224 3845 ft 180 kts 185°
2026-05-09 00:29 43.63122 -79.26956 3925 ft 196 kts 225°
2026-05-09 00:29 43.62184 -79.28365 4354 ft 200 kts 230°
2026-05-09 00:29 43.61275 -79.29810 4869 ft 202 kts 231°
2026-05-09 00:29 43.60367 -79.31287 5374 ft 204 kts 232°
2026-05-09 00:30 43.59462 -79.32777 5885 ft 206 kts 233°
2026-05-09 00:30 43.58541 -79.34306 6407 ft 207 kts 234°
2026-05-09 00:30 43.57630 -79.35827 6941 ft 207 kts 234°
2026-05-09 00:30 43.56718 -79.37354 7460 ft 207 kts 235°
2026-05-09 00:31 43.55801 -79.38893 7829 ft 210 kts 235°
2026-05-09 00:31 43.54879 -79.40447 8262 ft 210 kts 236°
2026-05-09 00:31 43.53957 -79.42003 8668 ft 211 kts 236°
2026-05-09 00:31 43.53043 -79.43548 9086 ft 211 kts 237°
2026-05-09 00:32 43.52106 -79.45130 9504 ft 212 kts 237°
2026-05-09 00:32 43.51171 -79.46712 9908 ft 213 kts 237°
2026-05-09 00:32 43.50247 -79.48273 10319 ft 214 kts 238°
2026-05-09 00:32 43.49313 -79.49850 10755 ft 213 kts 238°
2026-05-09 00:33 43.48373 -79.51438 11180 ft 214 kts 238°
2026-05-09 00:33 43.47437 -79.53020 11568 ft 215 kts 238°
2026-05-09 00:33 43.46498 -79.54605 11983 ft 215 kts 238°
2026-05-09 00:33 43.45558 -79.56191 12412 ft 215 kts 238°
2026-05-09 00:34 43.44611 -79.57789 12785 ft 216 kts 238°
2026-05-09 00:34 43.43663 -79.59388 13146 ft 216 kts 238°
2026-05-09 00:34 43.42711 -79.60991 13522 ft 216 kts 238°
2026-05-09 00:34 43.41764 -79.62586 13904 ft 216 kts 238°
2026-05-09 00:35 43.40811 -79.64192 14229 ft 218 kts 238°
2026-05-09 00:35 43.39856 -79.65798 14592 ft 218 kts 237°
2026-05-09 00:35 43.38899 -79.67406 14906 ft 220 kts 237°
2026-05-09 00:35 43.37926 -79.69043 15213 ft 221 kts 237°
2026-05-09 00:36 43.36953 -79.70676 15541 ft 221 kts 238°
2026-05-09 00:36 43.35974 -79.72319 15870 ft 222 kts 238°
2026-05-09 00:36 43.34991 -79.73969 16166 ft 223 kts 238°
2026-05-09 00:36 43.34007 -79.75620 16448 ft 225 kts 238°
2026-05-09 00:37 43.33023 -79.77270 16727 ft 226 kts 238°
2026-05-09 00:37 43.32019 -79.78948 17069 ft 225 kts 238°
2026-05-09 00:37 43.31021 -79.80621 17308 ft 227 kts 238°
2026-05-09 00:37 43.30032 -79.82273 17596 ft 226 kts 238°
2026-05-09 00:38 43.29033 -79.83946 17815 ft 228 kts 238°
2026-05-09 00:38 43.28027 -79.85628 18071 ft 228 kts 238°
2026-05-09 00:38 43.27014 -79.87317 18334 ft 228 kts 238°
2026-05-09 00:38 43.26011 -79.88993 18558 ft 230 kts 238°
2026-05-09 00:39 43.24996 -79.90688 18832 ft 230 kts 239°
2026-05-09 00:39 43.24229 -79.92522 19025 ft 221 kts 258°
2026-05-09 00:39 43.23897 -79.94579 19194 ft 220 kts 263°
2026-05-09 00:39 43.23610 -79.96619 19420 ft 220 kts 263°
2026-05-09 00:40 43.23320 -79.98677 19646 ft 220 kts 262°
2026-05-09 00:40 43.23025 -80.00750 19867 ft 221 kts 262°
2026-05-09 00:40 43.22731 -80.02803 20076 ft 220 kts 262°
2026-05-09 00:41 43.22132 -80.06943 20405 ft 222 kts 262°
2026-05-09 00:41 43.21831 -80.09010 20595 ft 222 kts 262°
2026-05-09 00:41 43.21526 -80.11098 20749 ft 223 kts 262°
2026-05-09 00:41 43.21222 -80.13174 20980 ft 224 kts 262°
2026-05-09 00:42 43.20914 -80.15272 21217 ft 224 kts 262°
2026-05-09 00:42 43.20609 -80.17351 21469 ft 224 kts 262°
2026-05-09 00:42 43.20301 -80.19437 21653 ft 225 kts 262°
2026-05-09 00:42 43.19987 -80.21569 21825 ft 229 kts 262°
2026-05-09 00:43 43.19671 -80.23697 21862 ft 231 kts 262°
2026-05-09 00:43 43.19056 -80.25748 21860 ft 242 kts 240°
2026-05-09 00:43 43.17871 -80.27443 21876 ft 250 kts 232°
2026-05-09 00:43 43.16608 -80.29096 21877 ft 253 kts 232°
2026-05-09 00:44 43.15328 -80.30769 21877 ft 257 kts 232°
2026-05-09 00:44 43.14027 -80.32470 21875 ft 260 kts 232°
2026-05-09 00:44 43.12719 -80.34185 21877 ft 263 kts 232°
2026-05-09 00:44 43.11392 -80.35927 21869 ft 266 kts 232°
2026-05-09 00:45 43.10045 -80.37696 21869 ft 269 kts 232°
2026-05-09 00:45 43.08704 -80.39459 21865 ft 271 kts 232°
2026-05-09 00:45 43.07345 -80.41245 21864 ft 273 kts 232°
2026-05-09 00:45 43.05963 -80.43060 21865 ft 274 kts 232°
2026-05-09 00:46 43.04587 -80.44869 21868 ft 275 kts 232°
2026-05-09 00:46 43.03213 -80.46674 21873 ft 277 kts 232°
2026-05-09 00:46 43.01812 -80.48513 21873 ft 278 kts 232°
2026-05-09 00:46 43.00439 -80.50317 21871 ft 279 kts 232°
2026-05-09 00:47 42.99025 -80.52172 21872 ft 279 kts 232°
2026-05-09 00:47 42.97639 -80.53982 21859 ft 274 kts 231°
2026-05-09 00:47 42.96277 -80.55760 21858 ft 270 kts 232°
2026-05-09 00:47 42.94921 -80.57533 21859 ft 266 kts 232°
2026-05-09 00:48 42.93608 -80.59248 21854 ft 262 kts 232°
2026-05-09 00:48 42.92292 -80.60967 21854 ft 258 kts 232°
2026-05-09 00:48 42.91008 -80.62645 21856 ft 254 kts 232°
2026-05-09 00:48 42.89753 -80.64284 21859 ft 251 kts 232°
2026-05-09 00:49 42.88489 -80.65932 21856 ft 246 kts 232°
2026-05-09 00:49 42.87277 -80.67516 21856 ft 245 kts 232°
2026-05-09 00:49 42.86028 -80.69155 21861 ft 248 kts 232°
2026-05-09 00:49 42.84789 -80.70782 21867 ft 252 kts 232°
2026-05-09 00:50 42.83517 -80.72447 21868 ft 256 kts 232°
2026-05-09 00:50 42.82219 -80.74144 21865 ft 260 kts 232°
2026-05-09 00:50 42.80895 -80.75870 21863 ft 263 kts 232°
2026-05-09 00:50 42.79577 -80.77587 21864 ft 266 kts 232°
2026-05-09 00:51 42.78223 -80.79347 21866 ft 269 kts 232°
2026-05-09 00:51 42.76865 -80.81113 21872 ft 272 kts 232°
2026-05-09 00:51 42.75491 -80.82897 21861 ft 274 kts 231°
2026-05-09 00:51 42.74124 -80.84669 21867 ft 275 kts 232°
2026-05-09 00:52 42.72739 -80.86466 21859 ft 277 kts 231°
2026-05-09 00:52 42.71346 -80.88271 21852 ft 277 kts 232°
2026-05-09 00:52 42.70084 -80.90204 21860 ft 267 kts 240°
2026-05-09 00:52 42.69021 -80.92230 21863 ft 264 kts 242°
2026-05-09 00:53 42.67966 -80.94279 21869 ft 266 kts 242°
2026-05-09 00:53 42.66908 -80.96330 21864 ft 267 kts 242°
2026-05-09 00:53 42.65832 -80.98409 21874 ft 268 kts 241°
2026-05-09 00:53 42.64761 -81.00473 21873 ft 269 kts 241°
2026-05-09 00:54 42.63688 -81.02537 21868 ft 270 kts 241°
2026-05-09 00:54 42.62606 -81.04614 21875 ft 270 kts 241°
2026-05-09 00:54 42.61521 -81.06692 21881 ft 271 kts 241°
2026-05-09 00:54 42.60432 -81.08780 21871 ft 272 kts 241°
2026-05-09 00:55 42.59334 -81.10877 21864 ft 272 kts 241°
2026-05-09 00:55 42.58247 -81.12955 21870 ft 272 kts 241°
2026-05-09 00:55 42.57142 -81.15062 21868 ft 272 kts 241°
2026-05-09 00:55 42.56062 -81.17123 21867 ft 272 kts 241°
2026-05-09 00:56 42.54950 -81.19241 21866 ft 273 kts 241°
2026-05-09 00:56 42.53852 -81.21330 21857 ft 273 kts 241°
2026-05-09 00:56 42.52755 -81.23418 21864 ft 272 kts 241°
2026-05-09 00:56 42.51671 -81.25480 21869 ft 272 kts 241°
2026-05-09 00:57 42.50566 -81.27579 21861 ft 272 kts 241°
2026-05-09 00:57 42.49461 -81.29677 21861 ft 272 kts 241°
2026-05-09 00:57 42.48373 -81.31741 21867 ft 272 kts 241°
2026-05-09 00:57 42.47270 -81.33831 21863 ft 272 kts 241°
2026-05-09 00:58 42.46176 -81.35902 21863 ft 272 kts 241°
2026-05-09 00:58 42.45071 -81.37994 21864 ft 272 kts 241°
2026-05-09 00:58 42.43977 -81.40065 21863 ft 272 kts 241°
2026-05-09 00:58 42.42869 -81.42159 21862 ft 272 kts 241°
2026-05-09 00:59 42.41769 -81.44237 21856 ft 272 kts 241°
2026-05-09 00:59 42.40671 -81.46310 21859 ft 272 kts 241°
2026-05-09 00:59 42.39579 -81.48371 21857 ft 272 kts 241°
2026-05-09 00:59 42.38473 -81.50454 21861 ft 271 kts 242°
2026-05-09 01:00 42.37387 -81.52502 21862 ft 271 kts 241°
2026-05-09 01:00 42.36288 -81.54572 21864 ft 271 kts 241°
2026-05-09 01:00 42.35189 -81.56638 21855 ft 271 kts 241°
2026-05-09 01:00 42.34083 -81.58717 21851 ft 271 kts 241°
2026-05-09 01:01 42.32988 -81.60775 21855 ft 271 kts 241°
2026-05-09 01:01 42.31892 -81.62833 21859 ft 270 kts 241°
2026-05-09 01:01 42.30797 -81.64887 21860 ft 270 kts 241°
2026-05-09 01:01 42.29698 -81.66947 21856 ft 270 kts 240°
2026-05-09 01:02 42.28599 -81.69006 21855 ft 270 kts 241°
2026-05-09 01:02 42.27505 -81.71058 21855 ft 271 kts 240°
2026-05-09 01:02 42.26396 -81.73132 21853 ft 271 kts 240°
2026-05-09 01:02 42.25294 -81.75192 21849 ft 272 kts 240°
2026-05-09 01:03 42.24192 -81.77253 21852 ft 272 kts 240°
2026-05-09 01:03 42.23081 -81.79326 21854 ft 272 kts 240°
2026-05-09 01:03 42.21987 -81.81355 21644 ft 266 kts 240°
2026-05-09 01:03 42.20887 -81.83405 21023 ft 272 kts 240°
2026-05-09 01:04 42.19793 -81.85433 20586 ft 268 kts 240°
2026-05-09 01:04 42.18699 -81.87466 19960 ft 271 kts 240°
2026-05-09 01:04 42.17612 -81.89486 19469 ft 269 kts 240°
2026-05-09 01:04 42.16517 -81.91517 18934 ft 267 kts 240°
2026-05-09 01:05 42.15432 -81.93532 18396 ft 267 kts 239°
2026-05-09 01:05 42.14342 -81.95554 17896 ft 266 kts 239°
2026-05-09 01:05 42.12186 -81.99549 16922 ft 263 kts 239°
2026-05-09 01:06 42.11125 -82.01518 16415 ft 265 kts 239°
2026-05-09 01:06 42.10050 -82.03509 16101 ft 260 kts 239°
2026-05-09 01:06 42.08993 -82.05466 15650 ft 260 kts 239°
2026-05-09 01:06 42.07927 -82.07437 15172 ft 263 kts 239°
2026-05-09 01:07 42.06868 -82.09399 14917 ft 256 kts 239°
2026-05-09 01:07 42.05811 -82.11349 14300 ft 260 kts 239°
2026-05-09 01:07 42.04761 -82.13288 13873 ft 258 kts 239°
2026-05-09 01:07 42.03706 -82.15232 13462 ft 255 kts 238°
2026-05-09 01:08 42.02670 -82.17127 12995 ft 255 kts 237°
2026-05-09 01:08 42.01300 -82.18663 12493 ft 267 kts 210°
2026-05-09 01:08 41.99449 -82.19202 12114 ft 271 kts 193°
2026-05-09 01:08 41.97625 -82.19467 11995 ft 258 kts 193°
2026-05-09 01:09 41.95882 -82.19712 11962 ft 242 kts 193°
2026-05-09 01:09 41.94273 -82.19939 11947 ft 229 kts 194°
2026-05-09 01:09 41.92635 -82.20204 11974 ft 246 kts 194°
2026-05-09 01:09 41.90915 -82.20487 11964 ft 253 kts 194°
2026-05-09 01:10 41.89152 -82.20762 11969 ft 256 kts 194°
2026-05-09 01:10 41.87359 -82.21033 11963 ft 259 kts 192°
2026-05-09 01:10 41.85557 -82.20719 11912 ft 270 kts 163°
2026-05-09 01:10 41.84071 -82.19137 11445 ft 285 kts 130°
2026-05-09 01:11 41.83024 -82.16896 11084 ft 285 kts 123°
2026-05-09 01:11 41.82020 -82.14593 10700 ft 283 kts 123°
2026-05-09 01:11 41.81033 -82.12346 10336 ft 281 kts 123°
2026-05-09 01:11 41.80056 -82.10138 10094 ft 269 kts 123°
2026-05-09 01:12 41.79112 -82.08015 9678 ft 265 kts 123°
2026-05-09 01:12 41.78172 -82.05922 9247 ft 261 kts 123°
2026-05-09 01:12 41.77239 -82.03858 8794 ft 259 kts 124°
2026-05-09 01:12 41.76309 -82.01809 8365 ft 255 kts 124°
2026-05-09 01:13 41.75394 -81.99805 8099 ft 252 kts 124°
2026-05-09 01:13 41.74470 -81.97795 8017 ft 252 kts 124°
2026-05-09 01:13 41.73561 -81.95817 7980 ft 247 kts 124°
2026-05-09 01:13 41.72654 -81.93848 7978 ft 252 kts 124°
2026-05-09 01:14 41.71736 -81.91859 7972 ft 254 kts 124°
2026-05-09 01:14 41.70789 -81.89839 7970 ft 255 kts 125°
2026-05-09 01:14 41.69850 -81.87872 7969 ft 253 kts 125°
2026-05-09 01:14 41.68904 -81.85899 7973 ft 251 kts 125°
2026-05-09 01:15 41.67972 -81.83923 7977 ft 250 kts 124°
2026-05-09 01:15 41.67051 -81.81956 7989 ft 252 kts 126°
2026-05-09 01:15 41.66098 -81.79977 7993 ft 256 kts 125°
2026-05-09 01:15 41.65131 -81.77966 7992 ft 254 kts 126°
2026-05-09 01:16 41.64171 -81.75971 7993 ft 254 kts 125°
2026-05-09 01:16 41.63233 -81.74024 7994 ft 253 kts 126°
2026-05-09 01:16 41.62271 -81.72021 7994 ft 254 kts 126°
2026-05-09 01:17 41.60363 -81.68091 7986 ft 248 kts 134°
2026-05-09 01:17 41.59046 -81.66802 7991 ft 235 kts 165°
2026-05-09 01:17 41.57437 -81.66222 8003 ft 240 kts 172°
2026-05-09 01:17 41.55809 -81.65710 7999 ft 240 kts 172°
2026-05-09 01:18 41.54198 -81.65201 7994 ft 234 kts 173°
2026-05-09 01:18 41.52634 -81.64697 7998 ft 233 kts 172°
2026-05-09 01:18 41.51028 -81.64182 8002 ft 237 kts 173°
2026-05-09 01:18 41.49424 -81.63711 7991 ft 234 kts 178°
2026-05-09 01:19 41.47875 -81.63991 7994 ft 220 kts 210°
2026-05-09 01:19 41.46619 -81.65106 8004 ft 215 kts 222°
2026-05-09 01:19 41.45459 -81.66289 7907 ft 207 kts 222°
2026-05-09 01:19 41.44291 -81.67474 7363 ft 212 kts 222°
2026-05-09 01:20 41.43136 -81.68671 7130 ft 214 kts 222°
2026-05-09 01:20 41.41967 -81.69898 7042 ft 215 kts 223°
2026-05-09 01:20 41.40784 -81.71132 7006 ft 214 kts 222°
2026-05-09 01:20 41.39616 -81.72363 6999 ft 216 kts 223°
2026-05-09 01:21 41.38440 -81.73598 6989 ft 211 kts 222°
2026-05-09 01:21 41.37299 -81.74800 6988 ft 213 kts 222°
2026-05-09 01:21 41.36122 -81.76046 6993 ft 214 kts 223°
2026-05-09 01:21 41.34956 -81.77261 6988 ft 211 kts 223°
2026-05-09 01:22 41.33890 -81.78565 6978 ft 206 kts 238°
2026-05-09 01:22 41.33476 -81.80351 6988 ft 205 kts 271°
2026-05-09 01:22 41.33935 -81.82140 6992 ft 213 kts 302°
2026-05-09 01:22 41.35087 -81.83431 7004 ft 220 kts 322°
2026-05-09 01:23 41.36373 -81.84508 6987 ft 218 kts 322°
2026-05-09 01:23 41.37653 -81.85564 6984 ft 214 kts 323°
2026-05-09 01:23 41.38907 -81.86603 6987 ft 212 kts 322°
2026-05-09 01:23 41.40171 -81.87646 6990 ft 212 kts 322°
2026-05-09 01:24 41.41443 -81.88689 6995 ft 219 kts 323°
2026-05-09 01:24 41.42756 -81.89771 6996 ft 222 kts 323°
2026-05-09 01:24 41.44072 -81.90868 6992 ft 221 kts 323°
2026-05-09 01:24 41.45416 -81.91881 6976 ft 223 kts 335°
2026-05-09 01:25 41.46979 -81.92020 6987 ft 234 kts
2026-05-09 01:25 41.48434 -81.91016 6989 ft 246 kts 38°
2026-05-09 01:25 41.49584 -81.89281 6994 ft 249 kts 47°
2026-05-09 01:25 41.50670 -81.87508 6989 ft 246 kts 47°
2026-05-09 01:26 41.51748 -81.85739 6989 ft 246 kts 48°
2026-05-09 01:26 41.52839 -81.83951 6989 ft 248 kts 47°
2026-05-09 01:26 41.53925 -81.82168 6993 ft 251 kts 47°
2026-05-09 01:26 41.55016 -81.80383 6977 ft 244 kts 47°
2026-05-09 01:27 41.56089 -81.78631 6980 ft 243 kts 47°
2026-05-09 01:27 41.57143 -81.76903 6572 ft 241 kts 47°
2026-05-09 01:27 41.58206 -81.75176 6006 ft 245 kts 47°
2026-05-09 01:27 41.59289 -81.73432 5655 ft 245 kts 47°
2026-05-09 01:28 41.60373 -81.71691 5402 ft 240 kts 47°
2026-05-09 01:28 41.61446 -81.69978 4923 ft 240 kts 47°
2026-05-09 01:28 41.62515 -81.68276 4440 ft 241 kts 46°
2026-05-09 01:28 41.63419 -81.66414 4130 ft 234 kts 70°
2026-05-09 01:29 41.63515 -81.64304 4040 ft 230 kts 104°
2026-05-09 01:29 41.62865 -81.62467 3993 ft 208 kts 123°
2026-05-09 01:29 41.62450 -81.60630 3984 ft 212 kts 89°
2026-05-09 01:29 41.62900 -81.58730 4009 ft 224 kts 54°
2026-05-09 01:30 41.64122 -81.57315 4011 ft 241 kts 23°
2026-05-09 01:30 41.65691 -81.56790 4003 ft 231 kts
2026-05-09 01:30 41.67288 -81.56569 3991 ft 227 kts
2026-05-09 01:30 41.68854 -81.56350 3991 ft 227 kts
2026-05-09 01:31 41.70425 -81.56134 3988 ft 224 kts
2026-05-09 01:31 41.71973 -81.55911 3994 ft 225 kts
2026-05-09 01:31 41.73428 -81.55132 3991 ft 231 kts 35°
2026-05-09 01:31 41.74618 -81.53661 3999 ft 235 kts 42°
2026-05-09 01:32 41.75794 -81.52137 3999 ft 234 kts 42°
2026-05-09 01:32 41.76957 -81.50623 3999 ft 235 kts 42°
2026-05-09 01:32 41.77921 -81.48854 3985 ft 236 kts 68°
2026-05-09 01:32 41.78094 -81.46725 3996 ft 234 kts 101°
2026-05-09 01:33 41.77422 -81.44789 3996 ft 230 kts 133°
2026-05-09 01:33 41.76242 -81.43318 4004 ft 230 kts 142°
2026-05-09 01:33 41.75053 -81.41932 3994 ft 228 kts 142°
2026-05-09 01:33 41.73838 -81.40517 4001 ft 232 kts 142°
2026-05-09 01:34 41.72606 -81.39096 4001 ft 236 kts 142°
2026-05-09 01:34 41.71283 -81.37918 3966 ft 212 kts 165°
2026-05-09 01:34 41.69977 -81.37928 3933 ft 171 kts 212°
2026-05-09 01:34 41.69291 -81.39044 3978 ft 156 kts 250°
2026-05-09 01:35 41.68937 -81.40422 3990 ft 158 kts 250°
2026-05-09 01:35 41.68382 -81.41692 4000 ft 160 kts 230°
2026-05-09 01:35 41.67612 -81.42818 4002 ft 164 kts 230°
2026-05-09 01:35 41.66902 -81.44023 4003 ft 166 kts 239°